ARIANE 42P DEB, 44510

Orbit data source: Space-Track

ARIANE 42P DEB, 44510 is space debris in LEO originally from a launch on Mon, 10 Aug 1992 UTC launched from the French Guiana (FRGUI). Debris objects in space refer to the collection of defunct objects orbiting the Earth. Examples of debris include non-operational satellites, rocket bodies, and fragments generated from explosions, collisions, or faulty payload assembly.

Loading next visibility...
Identifier
44510, 1992-052H
Orbit
LEO
Last TLE update
6 hours ago
Origin
Manufacturer
ArianeGroup
Mission
Spacecraft
Bus & Motor
Unknown
Mass
Unknown
Launch date (UTC)
1992-08-10 (33 years ago)
Launch vehicle
Unknown
Launch site
French Guiana (FRGUI)
Object type
Payload
Rocket body
Debris
Shape & HBR
Unknown
Radar Cross Section
Small (<0.1 m²)

Expand to show TLE details & history

TLE from 6 hours ago
0 ARIANE 42P DEB
1 44510U 92052H   25183.61302330  .00000425  00000-0  20745-2 0  9990
2 44510  66.0568 304.9745 0071530 112.8462 248.0127 12.81320774274797
Epoch: 2025-07-02T14:42Z
TLE epoch observation values (Epoch: 2025-07-02T14:42:45.213Z)
Latitude
-0.00006°
Longitude
163.39447°
Altitude
1,359.076 km
Speed
7.17 km/s
True Right ascension
20h 19m 53s
True Declination
0° 00' 00"
Sunlit
Object was in full shadow at epoch
Visualization orbit readout
Latitude
57.69876°
Longitude
-152.78694°
Altitude
1,305.938 km
Speed
7.228 km/s
Apparent Right ascension
21h 42m 19s
Apparent Declination
15° 56' 39"
Sunlit
Object is in daylight
Visualization observer readout
Local Sidereal Time
08:24:59
Azimuth
338.127° N
Elevation
-31.307°
Doppler factor
1
Orbital elements
Apogee altitude
1,389.895 km
Perigee altitude
1,279.555 km
Semi-major axis
7,712.862 km
Eccentricity
0.00715
Inclination
66.0568°
RAAN
304.9745°
Arg. of periapsis
112.8462°
True anomaly
Unknown
Mean anomaly
248.0127°
Eccentric anomaly
Unknown
Mean motion
3.2042 °/min
Orbital period
112.35 mins
BSTAR
0.0020745
Loading maneuver chart data...
Loading SW <> Apogee altitude chart data...
Loading historical data...
Loading historical data...
Loading historical data...
Loading historical data...
Loading historical data...
Loading historical data...
Loading historical data...

ARIANE 42P DEB Visibility forecast

Observer location: undefined°, undefined°

Span
Click to sort rows by Start time (UTC) header in descending order
Start Az.
Max El. time (UTC)
Max El. Az.
Max El.
End time (UTC)
End Az.
8 mins2025-07-02 20:59:55.003Z293.179° NW2025-07-02 21:03:55.003Z261.823° W15.606°2025-07-02 21:07:55.003Z229.079° WSW
5 mins2025-07-03 07:43:55.003Z112.973° SE2025-07-03 07:45:55.003Z97.222° ESE13.005°2025-07-03 07:48:55.003Z74.608° E
14 mins2025-07-03 09:33:55.003Z199.325° SSW2025-07-03 09:39:55.003Z137.828° SSE44.111°2025-07-03 09:47:55.003Z33.166° NE
11 mins2025-07-03 11:31:55.003Z270.692° WNW2025-07-03 11:36:55.003Z318.728° NNW24.921°2025-07-03 11:42:55.003Z11.909° NNE
12 mins2025-07-03 17:29:55.003Z349.921° N2025-07-03 17:34:55.003Z39.898° NE29.603°2025-07-03 17:41:55.003Z108.399° ESE
13 mins2025-07-03 19:25:55.003Z317.569° NNW2025-07-03 19:31:55.003Z235.829° WSW39.709°2025-07-03 19:38:55.003Z171.772° S
|